Weather History for Palm Springs, CA

Change the Weather History Date:

Tuesday, May 6, 2014

  Actual Average Record
Temperature  
Mean Temperature 72 °F 76 °F  
Max Temperature 79 °F 91 °F 108 °F (1963)
Min Temperature 64 °F 63 °F 45 °F (1964)
Degree Days  
Heating Degree Days 0 0  
Month to date heating degree days 0 0  
Since 1 July heating degree days 431 872  
Cooling Degree Days 7 12  
Month to date cooling degree days 98 65  
Year to date cooling degree days 671 385  
Growing Degree Days 20 (Base 50)    
Moisture  
Dew Point 34 °F    
Average Humidity 30    
Maximum Humidity 42    
Minimum Humidity 18    
Precipitation  
Precipitation 0.00 in 0.00 in 0.47 in (1969)
Month to date precipitation 0.00 0.06  
Year to date precipitation 0.75 2.81  
Since 1 July precipitation 2.01 5.61  
Snow  
Snow 0.00 in - - ()
Month to date snowfall 0.0  
Year to date snowfall 0.0  
Since 1 July snowfall 0.0  
Snow Depth 0.00 in    
Sea Level Pressure  
Sea Level Pressure 29.74 in    
Wind  
Wind Speed 11 mph (North)    
Max Wind Speed 32 mph    
Max Gust Speed 38 mph    
Visibility 10 miles    
Events      
T = Trace of Precipitation, MM = Missing Value Source: NWS Daily Summary

Daily Weather History Graph

Daily Weather History Graph

Search for Another Location

Airport:

Trip Planner

Search our weather history database for the weather conditions in past years. The results will help you decide how hot, cold, wet, or windy it might be!

Date:

Astronomy

May. 06, 2014 Rise Set
Actual Time 5:52 AM PDT 7:33 PM PDT
Civil Twilight 5:25 AM PDT 8:00 PM PDT
Nautical Twilight 4:52 AM PDT 8:33 PM PDT
Astronomical Twilight 4:18 AM PDT 9:07 PM PDT
Moon 12:08 PM PDT (5/6) 12:57 AM PDT (5/6)
Length of Visible Light 14h 35m
Length of Day
13h 41m
Waxing Crescent, 47% of the Moon is Illuminated
May 6
Waxing Crescent
May 6
First Quarter
May 14
Full
May 21
Last Quarter
May 28
New

Hourly Weather History & Observations

Time (PDT) Temp. Dew Point Humidity Pressure Visibility Wind Dir Wind Speed Gust Speed Precip Events Conditions
12:53 AM 69.1 °F 41.0 °F 36% 29.77 in 10.0 mi NNW 8.1 mph 18.4 mph N/A   Clear
4:53 AM 66.0 °F 37.9 °F 36% 29.74 in 10.0 mi East 15.0 mph 20.7 mph N/A   Clear
5:53 AM 66.0 °F 37.0 °F 34% 29.75 in 10.0 mi NE 9.2 mph 21.9 mph N/A   Clear
7:53 AM 66.9 °F 35.1 °F 31% 29.77 in 10.0 mi ENE 13.8 mph - N/A   Clear
8:53 AM 68.0 °F 34.0 °F 28% 29.78 in 10.0 mi WNW 10.4 mph 20.7 mph N/A   Scattered Clouds
9:53 AM 69.1 °F 32.0 °F 25% 29.77 in 10.0 mi North 11.5 mph 21.9 mph N/A   Clear
10:53 AM 71.1 °F 32.0 °F 24% 29.76 in 10.0 mi North - - N/A   Scattered Clouds
11:05 AM 70.0 °F 32.0 °F 25% 29.77 in 10.0 mi Calm Calm - N/A   Partly Cloudy
11:53 AM 73.9 °F 30.9 °F 21% 29.75 in 10.0 mi North 9.2 mph - N/A   Scattered Clouds
12:53 PM 75.9 °F 30.9 °F 19% 29.74 in 10.0 mi NNE 9.2 mph 18.4 mph N/A   Scattered Clouds
1:20 PM 77.0 °F 30.0 °F 18% 29.74 in 10.0 mi NNE 13.8 mph 24.2 mph N/A   Clear
1:53 PM 75.0 °F 30.0 °F 19% 29.73 in 10.0 mi Variable 4.6 mph 19.6 mph N/A   Scattered Clouds
2:53 PM 77.0 °F 30.0 °F 18% 29.71 in 10.0 mi Variable 6.9 mph 19.6 mph N/A   Scattered Clouds
3:53 PM 75.9 °F 30.0 °F 19% 29.71 in 10.0 mi West 8.1 mph 29.9 mph N/A   Scattered Clouds
4:40 PM 77.0 °F 33.1 °F 20% 29.72 in 10.0 mi NNW 20.7 mph 29.9 mph N/A   Clear
4:53 PM 75.0 °F 32.0 °F 21% 29.70 in 10.0 mi NW 20.7 mph 28.8 mph N/A   Scattered Clouds
5:53 PM 70.0 °F 37.9 °F 31% 29.72 in 10.0 mi NW 9.2 mph 20.7 mph N/A   Scattered Clouds
6:53 PM 68.0 °F 37.0 °F 32% 29.73 in 10.0 mi ESE 12.7 mph - N/A   Scattered Clouds
7:53 PM 66.0 °F 35.1 °F 32% 29.75 in 10.0 mi East 9.2 mph - N/A   Scattered Clouds
8:53 PM 64.9 °F 37.9 °F 37% 29.75 in 10.0 mi Variable 3.5 mph 18.4 mph N/A   Scattered Clouds
9:53 PM 66.9 °F 35.1 °F 31% 29.75 in 10.0 mi NNW 10.4 mph 26.5 mph N/A   Clear
10:53 PM 64.0 °F 36.0 °F 35% 29.75 in 10.0 mi South 3.5 mph - N/A   Clear
11:53 PM 63.0 °F 37.0 °F 38% 29.76 in 10.0 mi Calm Calm - N/A   Clear